Overview Statistics Trail Chart Weather Telemetry Raw packets
 

This is the latest recevied weather packets stored in our database for station/object K5BOU. If no packets are shown the sender has not sent any weather packets the latest 10 day(s).

<< 98 99 100 101 102 103 104 >>
Time Temp. Humidity Pressure Rain* Wind** Luminosity Snow
1787930010 30.56° C 86% 1015.8 hPa 0 mm - 490 W/m² -
1787929708 30.56° C 87% 1015.9 hPa 0 mm - 202 W/m² -
1787929403 30.56° C 87% 1015.8 hPa 0 mm - 530 W/m² -
1787929101 30° C 88% 1015.8 hPa 0 mm - 437 W/m² -
1787928797 30° C 89% 1015.6 hPa 0 mm - 419 W/m² -
1787928495 30° C 90% 1015.7 hPa 0 mm - 144 W/m² -
1787928195 30° C 90% 1015.8 hPa 0 mm - 188 W/m² -
1787927893 30° C 91% 1015.7 hPa 0 mm - 251 W/m² -
1787927589 30° C 91% 1015.4 hPa 0 mm - 318 W/m² -
1787927284 30° C 90% 1015.7 hPa 0 mm - 151 W/m² -
1787926980 30° C 90% 1015.5 hPa 0 mm - 303 W/m² -
1787926679 29.44° C 91% 1015.5 hPa 0 mm - 252 W/m² -
1787926384 30° C 90% 1015.3 hPa 0 mm - 193 W/m² -
1787926073 29.44° C 91% 1015.3 hPa 0 mm - 233 W/m² -
1787925772 30° C 91% 1015.3 hPa 0 mm - 145 W/m² -
1787925476 29.44° C 92% 1015.3 hPa 0 mm - 137 W/m² -
1787925166 29.44° C 93% 1015.4 hPa 0 mm - 211 W/m² -
1787924864 29.44° C 93% 1015.5 hPa 0 mm - 121 W/m² -
1787924560 28.89° C 94% 1015.2 hPa 0 mm - 185 W/m² -
1787924255 28.89° C 95% 1015.2 hPa 0 mm - 163 W/m² -
1787923950 28.89° C 96% 1015.2 hPa 0 mm - 89 W/m² -
1787923650 28.89° C 97% 1015 hPa 0 mm - 78 W/m² -
1787923345 28.33° C 97% 1015.1 hPa 0 mm - 79 W/m² -
1787923040 28.33° C 99% 1015.3 hPa 0 mm - 75 W/m² -
1787922735 28.33° C 99% 1015 hPa 0 mm - 95 W/m² -

* Rain latest hour (hover to see other rain measurements)
** Current wind speed in m/s (hover to see current wind gust speed)